This is the latest recevied weather packets stored in our database for station/object KN6ETB-1. If no packets are shown the sender has not sent any weather packets the latest 10 day(s).
| Time | Temp. | Humidity | Pressure | Rain* | Wind** | Luminosity | Snow |
|---|---|---|---|---|---|---|---|
| 1777647071 | 14.44° C | 82% | 1010.8 hPa | 0 mm | - | 164 W/m² | - |
| 1777646766 | 14.44° C | 83% | 1010.8 hPa | 0 mm | - | 149 W/m² | - |
| 1777646461 | 13.89° C | 83% | 1010.7 hPa | 0 mm | - | 129 W/m² | - |
| 1777646158 | 13.89° C | 84% | 1010.7 hPa | 0 mm | - | 112 W/m² | - |
| 1777645855 | 13.89° C | 85% | 1010.6 hPa | 0 mm | - | 108 W/m² | - |
| 1777645552 | 13.33° C | 85% | 1010.9 hPa | 0 mm | - | 92 W/m² | - |
| 1777645248 | 13.33° C | 86% | 1010.5 hPa | 0 mm | - | 84 W/m² | - |
| 1777644944 | 12.78° C | 87% | 1010.5 hPa | 0 mm | - | 65 W/m² | - |
| 1777644642 | 12.78° C | 87% | 1010.7 hPa | 0 mm | - | 61 W/m² | - |
| 1777644338 | 12.78° C | 88% | 1010.5 hPa | 0 mm | - | 54 W/m² | - |
| 1777644034 | 12.78° C | 88% | 1010.6 hPa | 0 mm | - | 44 W/m² | - |
| 1777643731 | 12.22° C | 89% | 1010.4 hPa | 0 mm | - | 36 W/m² | - |
| 1777643429 | 12.22° C | 89% | 1010.6 hPa | 0 mm | - | 27 W/m² | - |
| 1777643125 | 12.22° C | 89% | 1010.4 hPa | 0 mm | - | 23 W/m² | - |
| 1777642822 | 12.22° C | 89% | 1010.2 hPa | 0 mm | - | 19 W/m² | - |
| 1777642519 | 12.22° C | 89% | 1010.2 hPa | 0 mm | - | 15 W/m² | - |
| 1777642215 | 12.22° C | 89% | 1010.1 hPa | 0 mm | - | 12 W/m² | - |
| 1777641913 | 12.22° C | 89% | 1010 hPa | 0 mm | - | 9 W/m² | - |
| 1777641608 | 12.22° C | 89% | 1010 hPa | 0 mm | - | 6 W/m² | - |
| 1777641302 | 12.22° C | 88% | 1010.1 hPa | 0 mm | - | 3 W/m² | - |
| 1777640998 | 12.22° C | 88% | 1010.1 hPa | 0 mm | - | 2 W/m² | - |
| 1777640695 | 12.22° C | 88% | 1010 hPa | 0 mm | - | 0 W/m² | - |
| 1777640391 | 12.22° C | 88% | 1009.9 hPa | 0 mm | - | 0 W/m² | - |
| 1777640089 | 12.22° C | 88% | 1009.8 hPa | 0 mm | - | 0 W/m² | - |
| 1777639785 | 12.22° C | 88% | 1009.7 hPa | 0 mm | - | 0 W/m² | - |
* Rain latest hour (hover to see other rain measurements)
** Current wind speed in m/s (hover to see current wind gust speed)